{"data":{"norad_id":62314,"intl_designator":"2024-239P","name":"STARLINK-32651","alt_names":[],"object_type":"PAYLOAD","status":"ACTIVE","operator":null,"country":"US","launch_date":"2024-12-13","launch_site_code":"AFWTR","launch_vehicle":null,"mission":null,"orbit_class":"UNKNOWN","rcs_meters":null,"size_class":null,"mass_kg":null,"dimensions":null,"purposes":["comms"],"wikipedia_slug":null,"has_3d_model":false,"image_url":null,"decayed_at":null,"tle_current":{"epoch":"2026-09-21T12:59:06.910944Z","epoch_age_seconds":88008,"freshness":"FRESH","line1":"1 62314U 24239P   26264.54105221  .00024515  00000+0  73406-3 0  9995","line2":"2 62314  53.1603   1.0870 0001069  82.6370 277.4754 15.34410998 99417","mean_motion":15.34410998,"eccentricity":0.0001069,"inclination_deg":53.1603,"raan_deg":1.087,"arg_perigee_deg":82.637,"mean_anomaly_deg":277.4754,"bstar":0.00073406,"rev_number":9941,"period_min":93.847085420851,"perigee_km":461.93926970132,"apogee_km":463.40183435594,"semimajor_km":6840.8075520286,"source":"CELESTRAK","updated_at":"2026-09-22T09:00:49.573467Z"}}}